| time (UTC) | temp F | wind direction | speed MPH | gust MPH | rain 1hr in | rain 24hr in | rain mn in | humidity % | barometer mb |
| 20260505152940 | 58 | 3 | 7.0 | 22.0 | 0.00 | 0.00 | 0.00 | 45 | 1010.9 |
| 20260505152437 | 58 | 349 | 18.0 | 19.0 | 0.00 | 0.00 | 0.00 | 45 | 1010.8 |
| 20260505151932 | 57 | 353 | 9.0 | 19.0 | 0.00 | 0.00 | 0.00 | 46 | 1010.9 |
| 20260505151428 | 56 | 359 | 9.0 | 21.0 | 0.00 | 0.00 | 0.00 | 46 | 1010.6 |
| 20260505150925 | 56 | 15 | 13.0 | 18.0 | 0.00 | 0.00 | 0.00 | 46 | 1010.7 |
| 20260505150416 | 56 | 11 | 11.0 | 18.0 | 0.00 | 0.00 | 0.00 | 46 | 1010.8 |
| 20260505140335 | 54 | 348 | 14.0 | 17.0 | 0.00 | 0.00 | 0.00 | 49 | 1010.9 |
| 20260505130258 | 52 | 12 | 13.0 | 20.0 | 0.00 | 0.00 | 0.00 | 54 | 1009.3 |
| 20260505124749 | 53 | 7 | 6.0 | 19.0 | 0.00 | 0.00 | 0.00 | 56 | 1008.7 |
| 20260505124245 | 53 | 346 | 5.0 | 14.0 | 0.00 | 0.00 | 0.00 | 56 | 1008.8 |
| 20260505123741 | 53 | 353 | 11.0 | 14.0 | 0.00 | 0.00 | 0.00 | 57 | 1008.6 |
| 20260505123238 | 53 | 358 | 6.0 | 13.0 | 0.00 | 0.00 | 0.00 | 57 | 1008.7 |
| 20260505122734 | 53 | 356 | 11.0 | 16.0 | 0.00 | 0.00 | 0.00 | 57 | 1008.6 |
| 20260505122232 | 53 | 6 | 7.0 | 16.0 | 0.00 | 0.00 | 0.00 | 57 | 1008.7 |
| 20260505121728 | 53 | 333 | 8.0 | 13.0 | 0.00 | 0.00 | 0.00 | 57 | 1008.5 |
| 20260505121225 | 53 | 357 | 4.0 | 10.0 | 0.00 | 0.00 | 0.00 | 57 | 1008.5 |
| 20260505120721 | 53 | 1 | 11.0 | 13.0 | 0.00 | 0.00 | 0.00 | 56 | 1008.5 |
| 20260505120217 | 53 | 12 | 9.0 | 17.0 | 0.00 | 0.00 | 0.00 | 57 | 1008.0 |
| 20260505115716 | 53 | 356 | 7.0 | 14.0 | 0.00 | 0.00 | 0.00 | 57 | 1008.0 |
| 20260505115214 | 53 | 23 | 12.0 | 14.0 | 0.00 | 0.00 | 0.00 | 57 | 1008.0 |
| 20260505114711 | 54 | 9 | 6.0 | 13.0 | 0.00 | 0.00 | 0.00 | 57 | 1008.2 |
| 20260505114207 | 54 | 359 | 14.0 | 19.0 | 0.00 | 0.00 | 0.00 | 57 | 1008.2 |
| 20260505113704 | 54 | 338 | 6.0 | 15.0 | 0.00 | 0.00 | 0.00 | 57 | 1008.2 |
| 20260505113200 | 54 | 352 | 5.0 | 17.0 | 0.00 | 0.00 | 0.00 | 57 | 1008.0 |
| 20260505112657 | 55 | 1 | 10.0 | 19.0 | 0.00 | 0.00 | 0.00 | 57 | 1007.9 |
| 20260505112155 | 55 | 350 | 12.0 | 18.0 | 0.00 | 0.00 | 0.00 | 57 | 1007.8 |
| 20260505111654 | 55 | 5 | 15.0 | 17.0 | 0.00 | 0.00 | 0.00 | 57 | 1008.3 |
| 20260505111150 | 56 | 0 | 9.0 | 14.0 | 0.00 | 0.00 | 0.00 | 57 | 1008.0 |
| 20260505110646 | 56 | 357 | 10.0 | 19.0 | 0.00 | 0.00 | 0.00 | 57 | 1007.8 |
| 20260505110144 | 56 | 351 | 11.0 | 19.0 | 0.00 | 0.00 | 0.00 | 56 | 1007.7 |
| 20260505102120 | 60 | 335 | 17.0 | 28.0 | 0.00 | 0.00 | 0.00 | 45 | 1007.5 |
| 20260505101618 | 61 | 336 | 13.0 | 24.0 | 0.00 | 0.00 | 0.00 | 42 | 1007.4 |
| 20260505101114 | 62 | 332 | 20.0 | 31.0 | 0.00 | 0.00 | 0.00 | 39 | 1007.4 |
| 20260505100610 | 63 | 334 | 17.0 | 32.0 | 0.00 | 0.00 | 0.00 | 34 | 1007.0 |
| 20260505100108 | 63 | 333 | 19.0 | 22.0 | 0.00 | 0.00 | 0.00 | 31 | 1006.8 |
| 20260505095604 | 64 | 333 | 8.0 | 17.0 | 0.00 | 0.00 | 0.00 | 30 | 1006.6 |
| 20260505095100 | 64 | 316 | 17.0 | 20.0 | 0.00 | 0.00 | 0.00 | 30 | 1006.6 |
| 20260505094557 | 63 | 308 | 13.0 | 14.0 | 0.00 | 0.00 | 0.00 | 30 | 1006.2 |
| 20260505094053 | 63 | 293 | 7.0 | 10.0 | 0.00 | 0.00 | 0.00 | 30 | 1006.4 |
| 20260505093549 | 63 | 308 | 9.0 | 11.0 | 0.00 | 0.00 | 0.00 | 30 | 1006.1 |
| 20260505093047 | 64 | 322 | 9.0 | 13.0 | 0.00 | 0.00 | 0.00 | 29 | 1006.0 |
| 20260505092544 | 65 | 308 | 11.0 | 14.0 | 0.00 | 0.00 | 0.00 | 29 | 1005.9 |
| 20260505092043 | 64 | 263 | 14.0 | 21.0 | 0.00 | 0.00 | 0.00 | 30 | 1005.6 |
| 20260505091539 | 62 | 261 | 9.0 | 14.0 | 0.00 | 0.00 | 0.00 | 31 | 1005.5 |
| 20260505091037 | 62 | 263 | 9.0 | 11.0 | 0.00 | 0.00 | 0.00 | 31 | 1005.6 |
| 20260505090535 | 63 | 272 | 8.0 | 9.0 | 0.00 | 0.00 | 0.00 | 30 | 1005.2 |
| 20260505090033 | 63 | 284 | 6.0 | 8.0 | 0.00 | 0.00 | 0.00 | 29 | 1005.2 |
| 20260505085530 | 64 | 249 | 8.0 | 10.0 | 0.00 | 0.00 | 0.00 | 29 | 1005.1 |
| 20260505085028 | 65 | 256 | 8.0 | 10.0 | 0.00 | 0.00 | 0.00 | 29 | 1005.1 |
| 20260505084526 | 65 | 238 | 12.0 | 13.0 | 0.00 | 0.00 | 0.00 | 29 | 1005.0 |
| 20260505084024 | 66 | 263 | 9.0 | 12.0 | 0.00 | 0.00 | 0.00 | 28 | 1005.0 |
| 20260505083521 | 66 | 240 | 10.0 | 14.0 | 0.00 | 0.00 | 0.00 | 28 | 1005.0 |
| 20260505083017 | 66 | 244 | 11.0 | 15.0 | 0.00 | 0.00 | 0.00 | 28 | 1005.0 |
| 20260505082513 | 67 | 251 | 14.0 | 17.0 | 0.00 | 0.00 | 0.00 | 27 | 1005.1 |
| 20260505082010 | 67 | 237 | 12.0 | 17.0 | 0.00 | 0.00 | 0.00 | 27 | 1004.8 |
| 20260505081507 | 67 | 244 | 14.0 | 18.0 | 0.00 | 0.00 | 0.00 | 27 | 1004.8 |
| 20260505081003 | 68 | 251 | 12.0 | 17.0 | 0.00 | 0.00 | 0.00 | 27 | 1005.0 |
| 20260505080500 | 68 | 250 | 13.0 | 19.0 | 0.00 | 0.00 | 0.00 | 26 | 1004.9 |
| 20260505075955 | 68 | 242 | 15.0 | 19.0 | 0.00 | 0.00 | 0.00 | 26 | 1005.0 |
| 20260505075452 | 68 | 248 | 12.0 | 21.0 | 0.00 | 0.00 | 0.00 | 26 | 1004.9 |
| 20260505074949 | 68 | 250 | 12.0 | 20.0 | 0.00 | 0.00 | 0.00 | 26 | 1005.1 |
| 20260505074447 | 68 | 247 | 16.0 | 18.0 | 0.00 | 0.00 | 0.00 | 26 | 1005.1 |
| 20260505073944 | 68 | 244 | 13.0 | 18.0 | 0.00 | 0.00 | 0.00 | 26 | 1005.1 |
| 20260505073441 | 68 | 247 | 13.0 | 19.0 | 0.00 | 0.00 | 0.00 | 26 | 1005.4 |
| 20260505072938 | 68 | 247 | 12.0 | 19.0 | 0.00 | 0.00 | 0.00 | 26 | 1005.2 |
| 20260505072434 | 69 | 244 | 16.0 | 20.0 | 0.00 | 0.00 | 0.00 | 26 | 1005.5 |
| 20260505071931 | 69 | 246 | 14.0 | 19.0 | 0.00 | 0.00 | 0.00 | 25 | 1005.2 |
| 20260505071427 | 69 | 238 | 17.0 | 19.0 | 0.00 | 0.00 | 0.00 | 25 | 1005.2 |
| 20260505070925 | 69 | 239 | 17.0 | 23.0 | 0.00 | 0.00 | 0.00 | 25 | 1005.2 |
| 20260505070421 | 69 | 235 | 14.0 | 21.0 | 0.00 | 0.00 | 0.00 | 26 | 1005.4 |
| 20260505065917 | 69 | 234 | 14.0 | 18.0 | 0.00 | 0.00 | 0.00 | 26 | 1005.6 |
| 20260505065414 | 69 | 236 | 14.0 | 22.0 | 0.00 | 0.00 | 0.00 | 26 | 1005.5 |
| 20260505064911 | 68 | 235 | 15.0 | 18.0 | 0.00 | 0.00 | 0.00 | 26 | 1005.5 |
| 20260505064408 | 68 | 234 | 15.0 | 20.0 | 0.00 | 0.00 | 0.00 | 26 | 1005.4 |
| 20260505063906 | 69 | 232 | 15.0 | 19.0 | 0.00 | 0.00 | 0.00 | 26 | 1005.4 |
| 20260505063402 | 69 | 239 | 17.0 | 22.0 | 0.00 | 0.00 | 0.00 | 25 | 1005.6 |
| 20260505062859 | 69 | 237 | 19.0 | 23.0 | 0.00 | 0.00 | 0.00 | 25 | 1005.4 |
| 20260505062356 | 70 | 241 | 18.0 | 24.0 | 0.00 | 0.00 | 0.00 | 25 | 1005.5 |
| 20260505061852 | 70 | 243 | 18.0 | 23.0 | 0.00 | 0.00 | 0.00 | 25 | 1005.4 |
| 20260505061351 | 70 | 242 | 17.0 | 24.0 | 0.00 | 0.00 | 0.00 | 25 | 1005.4 |
| 20260505060848 | 70 | 249 | 17.0 | 25.0 | 0.00 | 0.00 | 0.00 | 25 | 1005.6 |
| 20260505060345 | 71 | 241 | 16.0 | 24.0 | 0.00 | 0.00 | 0.00 | 24 | 1005.5 |
| 20260505055841 | 71 | 238 | 16.0 | 24.0 | 0.00 | 0.00 | 0.00 | 24 | 1005.5 |
| 20260505055337 | 71 | 248 | 16.0 | 26.0 | 0.00 | 0.00 | 0.00 | 24 | 1005.4 |
| 20260505054834 | 71 | 237 | 20.0 | 26.0 | 0.00 | 0.00 | 0.00 | 24 | 1005.5 |
| 20260505054332 | 71 | 234 | 19.0 | 26.0 | 0.00 | 0.00 | 0.00 | 24 | 1005.5 |
| 20260505053830 | 71 | 241 | 17.0 | 28.0 | 0.00 | 0.00 | 0.00 | 24 | 1005.4 |
| 20260505053326 | 71 | 245 | 14.0 | 23.0 | 0.00 | 0.00 | 0.00 | 23 | 1005.6 |
| 20260505052823 | 72 | 245 | 21.0 | 26.0 | 0.00 | 0.00 | 0.00 | 23 | 1005.4 |
| 20260505052320 | 72 | 239 | 21.0 | 23.0 | 0.00 | 0.00 | 0.00 | 23 | 1005.5 |
| 20260505051817 | 72 | 237 | 16.0 | 24.0 | 0.00 | 0.00 | 0.00 | 23 | 1005.5 |
| 20260505051314 | 72 | 231 | 15.0 | 25.0 | 0.00 | 0.00 | 0.00 | 23 | 1005.2 |
| 20260505050812 | 72 | 240 | 19.0 | 28.0 | 0.00 | 0.00 | 0.00 | 23 | 1005.7 |
| 20260505050311 | 72 | 233 | 25.0 | 26.0 | 0.00 | 0.00 | 0.00 | 23 | 1005.6 |
| 20260505041740 | 71 | 229 | 21.0 | 24.0 | 0.00 | 0.00 | 0.00 | 24 | 1005.8 |
| 20260505041237 | 71 | 232 | 15.0 | 21.0 | 0.00 | 0.00 | 0.00 | 24 | 1005.7 |
| 20260505040735 | 71 | 228 | 15.0 | 22.0 | 0.00 | 0.00 | 0.00 | 25 | 1005.8 |
| 20260505040232 | 71 | 228 | 18.0 | 19.0 | 0.00 | 0.00 | 0.00 | 25 | 1005.9 |
| 20260505035729 | 71 | 235 | 17.0 | 20.0 | 0.00 | 0.00 | 0.00 | 24 | 1005.7 |
| 20260505035225 | 72 | 235 | 16.0 | 19.0 | 0.00 | 0.00 | 0.00 | 24 | 1005.8 |
| 20260505034722 | 72 | 240 | 13.0 | 20.0 | 0.00 | 0.00 | 0.00 | 24 | 1005.9 |
| 20260505034219 | 72 | 227 | 13.0 | 20.0 | 0.00 | 0.00 | 0.00 | 24 | 1005.7 |
| 20260505033715 | 72 | 236 | 15.0 | 21.0 | 0.00 | 0.00 | 0.00 | 24 | 1005.7 |
| 20260505033214 | 72 | 227 | 17.0 | 23.0 | 0.00 | 0.00 | 0.00 | 24 | 1005.7 |
| 20260505032711 | 72 | 232 | 13.0 | 17.0 | 0.00 | 0.00 | 0.00 | 24 | 1005.5 |
| 20260505032207 | 72 | 225 | 18.0 | 20.0 | 0.00 | 0.00 | 0.00 | 24 | 1005.7 |
| 20260505031705 | 72 | 227 | 12.0 | 18.0 | 0.00 | 0.00 | 0.00 | 24 | 1005.5 |
| 20260505031201 | 72 | 224 | 12.0 | 18.0 | 0.00 | 0.00 | 0.00 | 24 | 1005.7 |
| 20260505030658 | 72 | 220 | 13.0 | 16.0 | 0.00 | 0.00 | 0.00 | 23 | 1005.4 |
| 20260505030153 | 73 | 224 | 13.0 | 16.0 | 0.00 | 0.00 | 0.00 | 23 | 1005.5 |
| 20260505025649 | 73 | 225 | 12.0 | 23.0 | 0.00 | 0.00 | 0.00 | 22 | 1005.5 |
| 20260505025148 | 73 | 228 | 17.0 | 19.0 | 0.00 | 0.00 | 0.00 | 22 | 1005.4 |
| 20260505024645 | 74 | 228 | 16.0 | 21.0 | 0.00 | 0.00 | 0.00 | 21 | 1005.4 |
| 20260505024142 | 74 | 225 | 15.0 | 25.0 | 0.00 | 0.00 | 0.00 | 21 | 1005.5 |
| 20260505023640 | 74 | 226 | 19.0 | 25.0 | 0.00 | 0.00 | 0.00 | 20 | 1005.2 |
| 20260505023137 | 74 | 231 | 19.0 | 22.0 | 0.00 | 0.00 | 0.00 | 20 | 1005.4 |
| 20260505022635 | 74 | 236 | 18.0 | 21.0 | 0.00 | 0.00 | 0.00 | 19 | 1005.1 |
| 20260505022131 | 74 | 216 | 11.0 | 16.0 | 0.00 | 0.00 | 0.00 | 17 | 1005.0 |
| 20260505021628 | 75 | 222 | 13.0 | 18.0 | 0.00 | 0.00 | 0.00 | 17 | 1005.1 |
| 20260505021125 | 75 | 240 | 15.0 | 17.0 | 0.00 | 0.00 | 0.00 | 17 | 1004.8 |
| 20260505020620 | 75 | 232 | 15.0 | 20.0 | 0.00 | 0.00 | 0.00 | 17 | 1005.1 |
| 20260505020117 | 75 | 235 | 15.0 | 17.0 | 0.00 | 0.00 | 0.00 | 17 | 1004.9 |
| 20260505015614 | 76 | 229 | 17.0 | 19.0 | 0.00 | 0.00 | 0.00 | 17 | 1004.9 |
| 20260505015111 | 76 | 229 | 16.0 | 22.0 | 0.00 | 0.00 | 0.00 | 16 | 1004.8 |
| 20260505014607 | 77 | 230 | 18.0 | 23.0 | 0.00 | 0.00 | 0.00 | 16 | 1005.0 |
| 20260505014104 | 77 | 235 | 15.0 | 21.0 | 0.00 | 0.00 | 0.00 | 16 | 1004.9 |
| 20260505013601 | 77 | 229 | 14.0 | 19.0 | 0.00 | 0.00 | 0.00 | 15 | 1004.9 |
| 20260505013059 | 77 | 234 | 18.0 | 23.0 | 0.00 | 0.00 | 0.00 | 15 | 1004.8 |
| 20260505012557 | 78 | 234 | 19.0 | 24.0 | 0.00 | 0.00 | 0.00 | 15 | 1004.9 |
| 20260505012054 | 78 | 237 | 18.0 | 23.0 | 0.00 | 0.00 | 0.00 | 14 | 1004.6 |
| 20260505011549 | 78 | 245 | 18.0 | 26.0 | 0.00 | 0.00 | 0.00 | 14 | 1004.7 |
| 20260505011047 | 79 | 238 | 18.0 | 28.0 | 0.00 | 0.00 | 0.00 | 14 | 1004.6 |
| 20260505010542 | 79 | 246 | 24.0 | 27.0 | 0.00 | 0.00 | 0.00 | 15 | 1004.6 |
| 20260505010039 | 79 | 246 | 20.0 | 28.0 | 0.00 | 0.00 | 0.00 | 15 | 1004.5 |
| 20260505005535 | 80 | 240 | 17.0 | 25.0 | 0.00 | 0.00 | 0.00 | 15 | 1004.5 |
| 20260505005033 | 80 | 248 | 17.0 | 26.0 | 0.00 | 0.00 | 0.00 | 15 | 1004.8 |
| 20260505004529 | 80 | 241 | 19.0 | 25.0 | 0.00 | 0.00 | 0.00 | 15 | 1004.8 |
| 20260505004026 | 80 | 242 | 21.0 | 26.0 | 0.00 | 0.00 | 0.00 | 15 | 1004.7 |
| 20260505003523 | 81 | 235 | 20.0 | 28.0 | 0.00 | 0.00 | 0.00 | 14 | 1004.9 |
| 20260505003021 | 81 | 242 | 19.0 | 29.0 | 0.00 | 0.00 | 0.00 | 14 | 1005.0 |
| 20260505002520 | 81 | 251 | 19.0 | 32.0 | 0.00 | 0.00 | 0.00 | 14 | 1005.0 |
| 20260505002015 | 81 | 235 | 22.0 | 33.0 | 0.00 | 0.00 | 0.00 | 14 | 1004.9 |
| 20260505001512 | 82 | 243 | 30.0 | 37.0 | 0.00 | 0.00 | 0.00 | 14 | 1005.0 |
| 20260505001009 | 82 | 237 | 24.0 | 32.0 | 0.00 | 0.00 | 0.00 | 14 | 1004.9 |
| 20260505000506 | 82 | 240 | 23.0 | 31.0 | 0.00 | 0.00 | 0.00 | 14 | 1004.9 |
| 20260505000004 | 82 | 244 | 19.0 | 29.0 | 0.00 | 0.00 | 0.00 | 14 | 1004.8 |
| 20260504235500 | 82 | 233 | 21.0 | 30.0 | 0.00 | 0.00 | 0.00 | 14 | 1004.9 |
| 20260504234956 | 82 | 246 | 23.0 | 32.0 | 0.00 | 0.00 | 0.00 | 14 | 1004.9 |
| 20260504234454 | 83 | 239 | 22.0 | 32.0 | 0.00 | 0.00 | 0.00 | 13 | 1004.8 |
| 20260504233950 | 83 | 233 | 26.0 | 30.0 | 0.00 | 0.00 | 0.00 | 13 | 1005.0 |
| 20260504233446 | 83 | 236 | 26.0 | 33.0 | 0.00 | 0.00 | 0.00 | 13 | 1005.0 |
| 20260504232943 | 83 | 243 | 20.0 | 31.0 | 0.00 | 0.00 | 0.00 | 13 | 1004.9 |
| 20260504232440 | 83 | 244 | 19.0 | 34.0 | 0.00 | 0.00 | 0.00 | 13 | 1004.9 |
| 20260504231938 | 83 | 239 | 30.0 | 35.0 | 0.00 | 0.00 | 0.00 | 13 | 1005.0 |
| 20260504231434 | 84 | 240 | 18.0 | 31.0 | 0.00 | 0.00 | 0.00 | 13 | 1005.0 |
| 20260504230930 | 84 | 234 | 28.0 | 33.0 | 0.00 | 0.00 | 0.00 | 13 | 1004.8 |
| 20260504230427 | 84 | 247 | 28.0 | 35.0 | 0.00 | 0.00 | 0.00 | 14 | 1004.8 |
| 20260504225926 | 84 | 229 | 25.0 | 28.0 | 0.00 | 0.00 | 0.00 | 15 | 1004.7 |
| 20260504225422 | 84 | 239 | 31.0 | 34.0 | 0.00 | 0.00 | 0.00 | 16 | 1004.7 |
| 20260504224920 | 84 | 244 | 12.0 | 24.0 | 0.00 | 0.00 | 0.00 | 18 | 1004.9 |
| 20260504224416 | 84 | 254 | 21.0 | 23.0 | 0.00 | 0.00 | 0.00 | 19 | 1004.9 |
| 20260504223914 | 84 | 247 | 14.0 | 21.0 | 0.00 | 0.00 | 0.00 | 19 | 1004.8 |
| 20260504223409 | 84 | 247 | 22.0 | 27.0 | 0.00 | 0.00 | 0.00 | 19 | 1005.0 |
| 20260504222905 | 84 | 245 | 30.0 | 31.0 | 0.00 | 0.00 | 0.00 | 20 | 1005.1 |
| 20260504222402 | 83 | 247 | 18.0 | 25.0 | 0.00 | 0.00 | 0.00 | 21 | 1005.2 |
| 20260504221900 | 84 | 247 | 29.0 | 35.0 | 0.00 | 0.00 | 0.00 | 21 | 1005.2 |
| 20260504221351 | 84 | 225 | 23.0 | 24.0 | 0.00 | 0.00 | 0.00 | 22 | 1005.5 |
| 20260504220848 | 83 | 251 | 13.0 | 26.0 | 0.00 | 0.00 | 0.00 | 22 | 1005.5 |
| 20260504220344 | 84 | 231 | 27.0 | 28.0 | 0.00 | 0.00 | 0.00 | 21 | 1005.7 |
| 20260504215842 | 84 | 249 | 20.0 | 27.0 | 0.00 | 0.00 | 0.00 | 21 | 1005.2 |
| 20260504215338 | 84 | 218 | 11.0 | 16.0 | 0.00 | 0.00 | 0.00 | 21 | 1005.4 |
| 20260504214834 | 84 | 238 | 24.0 | 29.0 | 0.00 | 0.00 | 0.00 | 20 | 1005.9 |
| 20260504214332 | 85 | 254 | 15.0 | 24.0 | 0.00 | 0.00 | 0.00 | 19 | 1005.9 |
| 20260504213828 | 85 | 262 | 17.0 | 22.0 | 0.00 | 0.00 | 0.00 | 19 | 1005.9 |
| 20260504213324 | 84 | 275 | 10.0 | 19.0 | 0.00 | 0.00 | 0.00 | 19 | 1006.0 |
| 20260504212822 | 85 | 263 | 18.0 | 26.0 | 0.00 | 0.00 | 0.00 | 19 | 1006.0 |
| 20260504212317 | 84 | 264 | 17.0 | 22.0 | 0.00 | 0.00 | 0.00 | 19 | 1006.1 |
| 20260504211816 | 85 | 253 | 12.0 | 19.0 | 0.00 | 0.00 | 0.00 | 19 | 1006.1 |
| 20260504211311 | 85 | 233 | 14.0 | 19.0 | 0.00 | 0.00 | 0.00 | 20 | 1006.1 |
| 20260504210809 | 84 | 235 | 23.0 | 26.0 | 0.00 | 0.00 | 0.00 | 20 | 1006.6 |
| 20260504210306 | 84 | 269 | 13.0 | 20.0 | 0.00 | 0.00 | 0.00 | 19 | 1006.6 |
| 20260504205803 | 84 | 263 | 12.0 | 20.0 | 0.00 | 0.00 | 0.00 | 20 | 1006.5 |
| 20260504205301 | 85 | 231 | 13.0 | 18.0 | 0.00 | 0.00 | 0.00 | 20 | 1006.6 |
| 20260504204759 | 85 | 257 | 21.0 | 28.0 | 0.00 | 0.00 | 0.00 | 20 | 1006.6 |
| 20260504204257 | 84 | 255 | 13.0 | 21.0 | 0.00 | 0.00 | 0.00 | 21 | 1006.9 |
| 20260504203756 | 84 | 219 | 11.0 | 18.0 | 0.00 | 0.00 | 0.00 | 22 | 1006.7 |
| 20260504203253 | 84 | 226 | 20.0 | 22.0 | 0.00 | 0.00 | 0.00 | 21 | 1006.8 |
| 20260504202753 | 84 | 224 | 12.0 | 25.0 | 0.00 | 0.00 | 0.00 | 22 | 1006.9 |
| 20260504202250 | 85 | 238 | 22.0 | 34.0 | 0.00 | 0.00 | 0.00 | 21 | 1006.9 |
| 20260504201747 | 85 | 251 | 15.0 | 18.0 | 0.00 | 0.00 | 0.00 | 21 | 1007.0 |
| 20260504201244 | 84 | 248 | 18.0 | 29.0 | 0.00 | 0.00 | 0.00 | 21 | 1007.3 |
| 20260504200742 | 84 | 271 | 24.0 | 27.0 | 0.00 | 0.00 | 0.00 | 21 | 1007.0 |
| 20260504200238 | 84 | 246 | 14.0 | 19.0 | 0.00 | 0.00 | 0.00 | 23 | 1007.3 |
| 20260504195735 | 84 | 238 | 17.0 | 25.0 | 0.00 | 0.00 | 0.00 | 22 | 1007.3 |
| 20260504195230 | 84 | 249 | 21.0 | 25.0 | 0.00 | 0.00 | 0.00 | 21 | 1007.1 |
| 20260504194728 | 85 | 267 | 23.0 | 27.0 | 0.00 | 0.00 | 0.00 | 22 | 1007.3 |
| 20260504194224 | 84 | 273 | 12.0 | 19.0 | 0.00 | 0.00 | 0.00 | 23 | 1007.4 |
| 20260504193720 | 83 | 250 | 23.0 | 23.0 | 0.00 | 0.00 | 0.00 | 23 | 1007.7 |
| 20260504193218 | 83 | 266 | 16.0 | 19.0 | 0.00 | 0.00 | 0.00 | 23 | 1007.7 |
| 20260504192716 | 84 | 254 | 20.0 | 30.0 | 0.00 | 0.00 | 0.00 | 23 | 1007.8 |
| 20260504192214 | 84 | 263 | 16.0 | 26.0 | 0.00 | 0.00 | 0.00 | 22 | 1007.7 |
| 20260504191712 | 83 | 273 | 13.0 | 22.0 | 0.00 | 0.00 | 0.00 | 24 | 1007.8 |
| 20260504191209 | 83 | 286 | 21.0 | 24.0 | 0.00 | 0.00 | 0.00 | 24 | 1007.8 |
| 20260504190704 | 83 | 264 | 19.0 | 25.0 | 0.00 | 0.00 | 0.00 | 25 | 1007.9 |
| 20260504190201 | 82 | 264 | 21.0 | 29.0 | 0.00 | 0.00 | 0.00 | 24 | 1008.0 |
| 20260504185657 | 82 | 248 | 14.0 | 21.0 | 0.00 | 0.00 | 0.00 | 26 | 1008.2 |
| 20260504185154 | 82 | 253 | 17.0 | 24.0 | 0.00 | 0.00 | 0.00 | 25 | 1008.2 |
| 20260504184650 | 83 | 256 | 19.0 | 24.0 | 0.00 | 0.00 | 0.00 | 24 | 1008.2 |
| 20260504184145 | 83 | 281 | 16.0 | 22.0 | 0.00 | 0.00 | 0.00 | 24 | 1008.4 |
| 20260504183642 | 82 | 257 | 23.0 | 28.0 | 0.00 | 0.00 | 0.00 | 25 | 1008.3 |
| 20260504183139 | 83 | 274 | 15.0 | 27.0 | 0.00 | 0.00 | 0.00 | 25 | 1008.4 |
| 20260504182637 | 83 | 296 | 14.0 | 22.0 | 0.00 | 0.00 | 0.00 | 25 | 1008.7 |
| 20260504182129 | 82 | 277 | 15.0 | 22.0 | 0.00 | 0.00 | 0.00 | 25 | 1008.7 |
| 20260504181626 | 82 | 278 | 15.0 | 21.0 | 0.00 | 0.00 | 0.00 | 25 | 1008.7 |
| 20260504181124 | 82 | 279 | 14.0 | 17.0 | 0.00 | 0.00 | 0.00 | 26 | 1008.9 |
| 20260504180623 | 82 | 282 | 15.0 | 24.0 | 0.00 | 0.00 | 0.00 | 26 | 1009.0 |
| 20260504180121 | 82 | 285 | 17.0 | 27.0 | 0.00 | 0.00 | 0.00 | 25 | 1009.2 |
| 20260504175618 | 82 | 289 | 18.0 | 25.0 | 0.00 | 0.00 | 0.00 | 26 | 1009.4 |
| 20260504175115 | 82 | 272 | 15.0 | 20.0 | 0.00 | 0.00 | 0.00 | 26 | 1009.5 |
| 20260504174613 | 82 | 253 | 22.0 | 26.0 | 0.00 | 0.00 | 0.00 | 26 | 1009.5 |
| 20260504174109 | 82 | 251 | 28.0 | 28.0 | 0.00 | 0.00 | 0.00 | 26 | 1009.5 |
| 20260504173606 | 81 | 289 | 17.0 | 23.0 | 0.00 | 0.00 | 0.00 | 25 | 1009.5 |
| 20260504173104 | 81 | 277 | 19.0 | 25.0 | 0.00 | 0.00 | 0.00 | 25 | 1009.8 |
| 20260504172600 | 81 | 247 | 20.0 | 25.0 | 0.00 | 0.00 | 0.00 | 27 | 1009.7 |
| 20260504172056 | 80 | 246 | 21.0 | 26.0 | 0.00 | 0.00 | 0.00 | 27 | 1009.9 |
| 20260504171553 | 81 | 256 | 18.0 | 23.0 | 0.00 | 0.00 | 0.00 | 27 | 1009.8 |
| 20260504171050 | 80 | 266 | 23.0 | 25.0 | 0.00 | 0.00 | 0.00 | 28 | 1009.9 |
| 20260504170546 | 80 | 255 | 21.0 | 28.0 | 0.00 | 0.00 | 0.00 | 29 | 1009.9 |